| time (UTC) | temp F | wind direction | speed MPH | gust MPH | rain 1hr in | rain 24hr in | rain mn in | humidity % | barometer mb |
| 20260509145049 | 79 | 206 | 2.0 | 3.0 | 0.00 | 0.00 | 0.00 | 45 | 1013.4 |
| 20260509144551 | 78 | 175 | 1.0 | 5.0 | 0.00 | 0.00 | 0.00 | 45 | 1013.5 |
| 20260509144049 | 79 | 216 | 3.0 | 3.0 | 0.00 | 0.00 | 0.00 | 47 | 1013.5 |
| 20260509143551 | 79 | 220 | 5.0 | 7.0 | 0.00 | 0.00 | 0.00 | 47 | 1013.5 |
| 20260509143049 | 79 | 233 | 4.0 | 7.0 | 0.00 | 0.00 | 0.00 | 47 | 1013.6 |
| 20260509142551 | 78 | 112 | 3.0 | 5.0 | 0.00 | 0.00 | 0.00 | 48 | 1013.7 |
| 20260509142049 | 79 | 119 | 2.0 | 6.0 | 0.00 | 0.00 | 0.00 | 50 | 1013.7 |
| 20260509141548 | 79 | 185 | 1.0 | 3.0 | 0.00 | 0.00 | 0.00 | 50 | 1013.7 |
| 20260509135050 | 78 | 155 | 1.0 | 5.0 | 0.00 | 0.00 | 0.00 | 50 | 1014.1 |
| 20260509134550 | 79 | 117 | 1.0 | 5.0 | 0.00 | 0.00 | 0.00 | 51 | 1014.3 |
| 20260509134049 | 78 | 196 | 2.0 | 3.0 | 0.00 | 0.00 | 0.00 | 49 | 1014.3 |
| 20260509133549 | 78 | 281 | 5.0 | 7.0 | 0.00 | 0.00 | 0.00 | 52 | 1014.4 |
| 20260509133048 | 78 | 205 | 6.0 | 10.0 | 0.00 | 0.00 | 0.00 | 51 | 1014.5 |
| 20260509131549 | 79 | 228 | 3.0 | 7.0 | 0.00 | 0.00 | 0.00 | 48 | 1014.5 |
| 20260509131049 | 78 | 242 | 5.0 | 6.0 | 0.00 | 0.00 | 0.00 | 51 | 1014.6 |
| 20260509130550 | 77 | 225 | 1.0 | 7.0 | 0.00 | 0.00 | 0.00 | 52 | 1014.6 |
| 20260509130049 | 78 | 212 | 3.0 | 6.0 | 0.00 | 0.00 | 0.00 | 51 | 1014.7 |
| 20260509125049 | 77 | 124 | 3.0 | 10.0 | 0.00 | 0.00 | 0.00 | 53 | 1014.8 |
| 20260509124549 | 77 | 229 | 2.0 | 7.0 | 0.00 | 0.00 | 0.00 | 55 | 1014.9 |
| 20260509124049 | 77 | 268 | 3.0 | 5.0 | 0.00 | 0.00 | 0.00 | 55 | 1014.9 |
| 20260509123052 | 76 | 197 | 2.0 | 5.0 | 0.00 | 0.00 | 0.00 | 57 | 1015.0 |
| 20260509122549 | 77 | 217 | 2.0 | 5.0 | 0.00 | 0.00 | 0.00 | 54 | 1015.0 |
| 20260509122049 | 77 | 194 | 3.0 | 5.0 | 0.00 | 0.00 | 0.00 | 54 | 1015.0 |
| 20260509121548 | 77 | 192 | 5.0 | 7.0 | 0.00 | 0.00 | 0.00 | 56 | 1014.9 |
| 20260509121049 | 77 | 211 | 3.0 | 7.0 | 0.00 | 0.00 | 0.00 | 56 | 1015.0 |
| 20260509120549 | 77 | 207 | 2.0 | 6.0 | 0.00 | 0.00 | 0.00 | 55 | 1015.0 |
| 20260509120048 | 77 | 205 | 3.0 | 8.0 | 0.00 | 0.00 | 0.00 | 56 | 1014.9 |
| 20260509115049 | 77 | 192 | 3.0 | 5.0 | 0.00 | 0.00 | 0.00 | 56 | 1015.0 |
| 20260509114549 | 77 | 153 | 5.0 | 9.0 | 0.00 | 0.00 | 0.00 | 55 | 1015.0 |
| 20260509114049 | 77 | 200 | 4.0 | 6.0 | 0.00 | 0.00 | 0.00 | 56 | 1015.1 |
| 20260509113050 | 76 | 191 | 3.0 | 5.0 | 0.00 | 0.00 | 0.00 | 58 | 1015.2 |
| 20260509112100 | 76 | 250 | 3.0 | 5.0 | 0.00 | 0.00 | 0.00 | 56 | 1015.4 |
| 20260509111548 | 77 | 287 | 2.0 | 3.0 | 0.00 | 0.00 | 0.00 | 55 | 1015.5 |
| 20260509111048 | 76 | 0 | 3.0 | 6.0 | 0.00 | 0.00 | 0.00 | 58 | 1015.5 |
| 20260509110604 | 75 | 257 | 4.0 | 6.0 | 0.00 | 0.00 | 0.00 | 57 | 1015.5 |
| 20260509110048 | 76 | 239 | 3.0 | 6.0 | 0.00 | 0.00 | 0.00 | 58 | 1015.5 |
| 20260509105549 | 75 | 195 | 3.0 | 5.0 | 0.00 | 0.00 | 0.00 | 58 | 1015.6 |
| 20260509105048 | 75 | 330 | 4.0 | 6.0 | 0.00 | 0.00 | 0.00 | 59 | 1015.7 |
| 20260509104548 | 74 | 299 | 3.0 | 5.0 | 0.00 | 0.00 | 0.00 | 60 | 1015.8 |
| 20260509104055 | 74 | 308 | 2.0 | 6.0 | 0.00 | 0.00 | 0.00 | 58 | 1015.8 |
| 20260509103548 | 75 | 300 | 5.0 | 7.0 | 0.00 | 0.00 | 0.00 | 59 | 1015.9 |
| 20260509103048 | 74 | 239 | 2.0 | 7.0 | 0.00 | 0.00 | 0.00 | 63 | 1016.0 |
| 20260509102549 | 75 | 265 | 4.0 | 8.0 | 0.00 | 0.00 | 0.00 | 60 | 1016.1 |
| 20260509102049 | 74 | 146 | 4.0 | 7.0 | 0.00 | 0.00 | 0.00 | 61 | 1016.2 |
| 20260509101049 | 75 | 232 | 7.0 | 7.0 | 0.00 | 0.00 | 0.00 | 61 | 1016.2 |
| 20260509100548 | 74 | 258 | 4.0 | 5.0 | 0.00 | 0.00 | 0.00 | 62 | 1016.3 |
| 20260509095548 | 73 | 225 | 2.0 | 3.0 | 0.00 | 0.00 | 0.00 | 63 | 1016.3 |
| 20260509095048 | 74 | 258 | 2.0 | 5.0 | 0.00 | 0.00 | 0.00 | 63 | 1016.3 |
| 20260509094548 | 73 | 253 | 1.0 | 3.0 | 0.00 | 0.00 | 0.00 | 66 | 1016.3 |
| 20260509094048 | 73 | 232 | 2.0 | 3.0 | 0.00 | 0.00 | 0.00 | 67 | 1016.4 |
| 20260509093549 | 74 | 259 | 2.0 | 5.0 | 0.00 | 0.00 | 0.00 | 65 | 1016.4 |
| 20260509092548 | 72 | 67 | 3.0 | 5.0 | 0.00 | 0.00 | 0.00 | 67 | 1016.4 |
| 20260509092048 | 72 | 331 | 1.0 | 2.0 | 0.00 | 0.00 | 0.00 | 66 | 1016.5 |
| 20260509090548 | 71 | 321 | 1.0 | 3.0 | 0.00 | 0.00 | 0.00 | 70 | 1016.5 |
| 20260509090048 | 71 | 101 | 1.0 | 3.0 | 0.00 | 0.00 | 0.00 | 69 | 1016.5 |
| 20260509085047 | 70 | 220 | 2.0 | 3.0 | 0.00 | 0.00 | 0.00 | 70 | 1016.6 |
| 20260509084548 | 70 | 220 | 2.0 | 5.0 | 0.00 | 0.00 | 0.00 | 69 | 1016.6 |
| 20260509084048 | 71 | 246 | 1.0 | 3.0 | 0.00 | 0.00 | 0.00 | 68 | 1016.7 |
| 20260509083548 | 70 | 73 | 1.0 | 3.0 | 0.00 | 0.00 | 0.00 | 73 | 1016.6 |
| 20260509083048 | 70 | 62 | 1.0 | 3.0 | 0.00 | 0.00 | 0.00 | 73 | 1016.7 |
| 20260509082547 | 69 | 330 | 1.0 | 3.0 | 0.00 | 0.00 | 0.00 | 72 | 1016.7 |
| 20260509080547 | 68 | 264 | 1.0 | 5.0 | 0.00 | 0.00 | 0.00 | 75 | 1016.8 |
| 20260509074548 | 67 | 77 | 0.0 | 3.0 | 0.00 | 0.00 | 0.00 | 76 | 1016.8 |
| 20260509074047 | 66 | 63 | 1.0 | 3.0 | 0.00 | 0.00 | 0.00 | 77 | 1016.8 |
| 20260509073047 | 66 | 328 | 1.0 | 2.0 | 0.00 | 0.00 | 0.00 | 82 | 1016.9 |
| 20260509072548 | 65 | 198 | 1.0 | 2.0 | 0.00 | 0.00 | 0.00 | 81 | 1016.8 |
| 20260509072047 | 65 | 14 | 1.0 | 2.0 | 0.00 | 0.00 | 0.00 | 82 | 1016.9 |
| 20260509071548 | 65 | 332 | 2.0 | 2.0 | 0.00 | 0.00 | 0.00 | 83 | 1016.9 |
| 20260509071049 | 65 | 355 | 0.0 | 2.0 | 0.00 | 0.00 | 0.00 | 83 | 1016.9 |
| 20260509070548 | 64 | 355 | 1.0 | 2.0 | 0.00 | 0.00 | 0.00 | 84 | 1016.9 |
| 20260509065547 | 63 | 76 | 2.0 | 3.0 | 0.00 | 0.00 | 0.00 | 84 | 1016.8 |
| 20260509065047 | 63 | 93 | 2.0 | 3.0 | 0.00 | 0.00 | 0.00 | 85 | 1016.8 |
| 20260509063048 | 61 | 332 | 0.0 | 1.0 | 0.00 | 0.00 | 0.00 | 88 | 1016.7 |
| 20260509062048 | 60 | 314 | 0.0 | 1.0 | 0.00 | 0.00 | 0.00 | 91 | 1016.7 |
| 20260509061548 | 60 | 307 | 0.0 | 1.0 | 0.00 | 0.00 | 0.00 | 92 | 1016.7 |
| 20260509060549 | 59 | 242 | 0.0 | 0.0 | 0.00 | 0.00 | 0.00 | 94 | 1016.7 |
| 20260509060047 | 58 | 264 | 0.0 | 2.0 | 0.00 | 0.00 | 0.00 | 94 | 1016.6 |
| 20260509055604 | 58 | 270 | 2.0 | 3.0 | 0.00 | 0.00 | 0.00 | 95 | 1016.7 |
| 20260509054547 | 57 | 249 | 0.0 | 1.0 | 0.00 | 0.00 | 0.00 | 95 | 1016.6 |
| 20260509054048 | 56 | 246 | 2.0 | 3.0 | 0.00 | 0.00 | 0.00 | 96 | 1016.6 |
| 20260509053047 | 56 | 311 | 1.0 | 2.0 | 0.00 | 0.00 | 0.00 | 96 | 1016.6 |
| 20260509052548 | 56 | 261 | 1.0 | 1.0 | 0.00 | 0.00 | 0.00 | 96 | 1016.5 |
| 20260509052048 | 55 | 262 | 0.0 | 1.0 | 0.00 | 0.00 | 0.00 | 97 | 1016.4 |
| 20260509051049 | 55 | 232 | 0.0 | 1.0 | 0.00 | 0.00 | 0.00 | 97 | 1016.3 |
| 20260509045547 | 54 | 232 | 0.0 | 1.0 | 0.00 | 0.00 | 0.00 | 97 | 1016.2 |
| 20260509045050 | 53 | 232 | 1.0 | 3.0 | 0.00 | 0.00 | 0.00 | 96 | 1016.2 |
| 20260509044047 | 54 | 285 | 1.0 | 2.0 | 0.00 | 0.00 | 0.00 | 97 | 1016.1 |
| 20260509043547 | 54 | 285 | 0.0 | 0.0 | 0.00 | 0.00 | 0.00 | 97 | 1016.0 |
| 20260509042547 | 54 | 313 | 0.0 | 1.0 | 0.00 | 0.00 | 0.00 | 96 | 1016.1 |
| 20260509042047 | 54 | 313 | 0.0 | 1.0 | 0.00 | 0.00 | 0.00 | 97 | 1016.0 |
| 20260509041549 | 54 | 227 | 0.0 | 2.0 | 0.00 | 0.00 | 0.00 | 97 | 1016.1 |
| 20260509041046 | 53 | 214 | 1.0 | 3.0 | 0.00 | 0.00 | 0.00 | 96 | 1016.1 |
| 20260509040547 | 53 | 213 | 2.0 | 3.0 | 0.00 | 0.00 | 0.00 | 96 | 1016.1 |
| 20260509040047 | 53 | 219 | 1.0 | 2.0 | 0.00 | 0.00 | 0.00 | 96 | 1016.1 |
| 20260509035048 | 53 | 217 | 2.0 | 3.0 | 0.00 | 0.00 | 0.00 | 96 | 1016.0 |
| 20260509034547 | 53 | 77 | 1.0 | 2.0 | 0.00 | 0.00 | 0.00 | 96 | 1016.0 |
| 20260509034047 | 54 | 42 | 1.0 | 2.0 | 0.00 | 0.00 | 0.00 | 96 | 1015.9 |
| 20260509033547 | 54 | 49 | 1.0 | 2.0 | 0.00 | 0.00 | 0.00 | 96 | 1015.9 |
| 20260509033047 | 54 | 49 | 0.0 | 0.0 | 0.00 | 0.00 | 0.00 | 96 | 1015.9 |
| 20260509032048 | 54 | 59 | 1.0 | 1.0 | 0.00 | 0.00 | 0.00 | 96 | 1015.7 |
| 20260509031547 | 55 | 59 | 1.0 | 3.0 | 0.00 | 0.00 | 0.00 | 96 | 1015.7 |
| 20260509031046 | 55 | 72 | 1.0 | 3.0 | 0.00 | 0.00 | 0.00 | 96 | 1015.7 |
| 20260509030547 | 55 | 80 | 2.0 | 3.0 | 0.00 | 0.00 | 0.00 | 96 | 1015.7 |
| 20260509030046 | 55 | 80 | 2.0 | 2.0 | 0.00 | 0.00 | 0.00 | 96 | 1015.7 |
| 20260509025547 | 55 | 80 | 0.0 | 2.0 | 0.00 | 0.00 | 0.00 | 96 | 1015.8 |
| 20260509025047 | 55 | 80 | 0.0 | 2.0 | 0.00 | 0.00 | 0.00 | 96 | 1015.8 |
| 20260509024549 | 55 | 80 | 1.0 | 2.0 | 0.00 | 0.00 | 0.00 | 96 | 1015.9 |
| 20260509024047 | 55 | 80 | 0.0 | 1.0 | 0.00 | 0.00 | 0.00 | 96 | 1015.9 |
| 20260509023546 | 55 | 80 | 2.0 | 3.0 | 0.00 | 0.00 | 0.00 | 96 | 1015.9 |
| 20260509023048 | 55 | 80 | 0.0 | 0.0 | 0.00 | 0.00 | 0.00 | 96 | 1015.9 |
| 20260509022547 | 55 | 80 | 0.0 | 0.0 | 0.00 | 0.00 | 0.00 | 96 | 1015.9 |
| 20260509022102 | 55 | 80 | 0.0 | 0.0 | 0.00 | 0.00 | 0.00 | 96 | 1016.0 |
| 20260509021547 | 55 | 80 | 0.0 | 0.0 | 0.00 | 0.00 | 0.00 | 96 | 1016.0 |
| 20260509021047 | 55 | 80 | 0.0 | 0.0 | 0.00 | 0.00 | 0.00 | 96 | 1016.0 |
| 20260509020547 | 55 | 80 | 0.0 | 0.0 | 0.00 | 0.00 | 0.00 | 96 | 1016.0 |
| 20260509020047 | 55 | 80 | 0.0 | 0.0 | 0.00 | 0.00 | 0.00 | 95 | 1016.0 |
| 20260509015547 | 55 | 80 | 0.0 | 0.0 | 0.00 | 0.00 | 0.00 | 95 | 1016.0 |
| 20260509014549 | 55 | 80 | 0.0 | 0.0 | 0.00 | 0.00 | 0.00 | 95 | 1015.9 |
| 20260509014046 | 55 | 80 | 0.0 | 0.0 | 0.00 | 0.00 | 0.00 | 95 | 1015.9 |
| 20260509013046 | 56 | 80 | 0.0 | 0.0 | 0.00 | 0.00 | 0.00 | 95 | 1015.9 |
| 20260509012549 | 56 | 80 | 0.0 | 0.0 | 0.00 | 0.00 | 0.00 | 95 | 1015.9 |
| 20260509011546 | 56 | 80 | 0.0 | 0.0 | 0.00 | 0.00 | 0.00 | 95 | 1015.8 |
| 20260509011047 | 56 | 80 | 0.0 | 0.0 | 0.00 | 0.00 | 0.00 | 95 | 1015.8 |
| 20260509010547 | 56 | 80 | 0.0 | 1.0 | 0.00 | 0.00 | 0.00 | 95 | 1015.8 |
| 20260509010046 | 56 | 80 | 0.0 | 1.0 | 0.00 | 0.00 | 0.00 | 95 | 1015.8 |
| 20260509005547 | 56 | 80 | 1.0 | 2.0 | 0.00 | 0.00 | 0.00 | 95 | 1015.9 |
| 20260509005047 | 56 | 80 | 0.0 | 1.0 | 0.00 | 0.00 | 0.00 | 94 | 1015.8 |
| 20260509004047 | 56 | 80 | 0.0 | 0.0 | 0.00 | 0.00 | 0.00 | 94 | 1015.8 |
| 20260509003547 | 56 | 80 | 1.0 | 2.0 | 0.00 | 0.00 | 0.00 | 94 | 1015.8 |
| 20260509003046 | 56 | 80 | 0.0 | 0.0 | 0.00 | 0.00 | 0.00 | 94 | 1015.8 |
| 20260509002548 | 56 | 80 | 0.0 | 0.0 | 0.00 | 0.00 | 0.00 | 94 | 1015.8 |
| 20260509002049 | 56 | 80 | 0.0 | 1.0 | 0.00 | 0.00 | 0.00 | 94 | 1015.8 |
| 20260509001546 | 56 | 80 | 0.0 | 1.0 | 0.00 | 0.00 | 0.00 | 94 | 1015.8 |
| 20260509001046 | 56 | 80 | 0.0 | 2.0 | 0.00 | 0.00 | 0.00 | 93 | 1015.7 |
| 20260509000047 | 57 | 141 | 1.0 | 3.0 | 0.00 | 0.00 | 0.00 | 92 | 1015.6 |
| 20260508235546 | 57 | 141 | 2.0 | 2.0 | 0.00 | 0.00 | 0.00 | 92 | 1015.5 |
| 20260508234546 | 58 | 184 | 0.0 | 0.0 | 0.00 | 0.00 | 0.00 | 92 | 1015.5 |
| 20260508234047 | 58 | 184 | 0.0 | 0.0 | 0.00 | 0.00 | 0.00 | 92 | 1015.4 |
| 20260508233549 | 58 | 184 | 0.0 | 0.0 | 0.00 | 0.00 | 0.00 | 91 | 1015.4 |
| 20260508233046 | 58 | 184 | 0.0 | 0.0 | 0.00 | 0.00 | 0.00 | 92 | 1015.5 |
| 20260508231546 | 58 | 184 | 0.0 | 0.0 | 0.00 | 0.00 | 0.00 | 91 | 1015.5 |
| 20260508231049 | 58 | 184 | 0.0 | 0.0 | 0.00 | 0.00 | 0.00 | 91 | 1015.5 |
| 20260508230549 | 58 | 184 | 0.0 | 0.0 | 0.00 | 0.00 | 0.00 | 91 | 1015.5 |
| 20260508230046 | 58 | 184 | 0.0 | 0.0 | 0.00 | 0.00 | 0.00 | 91 | 1015.5 |
| 20260508225046 | 58 | 184 | 0.0 | 0.0 | 0.00 | 0.00 | 0.00 | 91 | 1015.5 |
| 20260508223602 | 59 | 184 | 0.0 | 0.0 | 0.00 | 0.00 | 0.00 | 91 | 1015.5 |
| 20260508222546 | 59 | 184 | 0.0 | 0.0 | 0.00 | 0.00 | 0.00 | 90 | 1015.5 |
| 20260508222046 | 59 | 184 | 0.0 | 0.0 | 0.00 | 0.00 | 0.00 | 90 | 1015.5 |
| 20260508221557 | 59 | 184 | 0.0 | 0.0 | 0.00 | 0.00 | 0.00 | 89 | 1015.6 |
| 20260508220546 | 60 | 184 | 0.0 | 0.0 | 0.00 | 0.00 | 0.00 | 88 | 1015.6 |
| 20260508215546 | 60 | 184 | 0.0 | 0.0 | 0.00 | 0.00 | 0.00 | 88 | 1015.6 |
| 20260508214045 | 60 | 184 | 0.0 | 0.0 | 0.00 | 0.00 | 0.00 | 87 | 1015.5 |
| 20260508213553 | 61 | 184 | 0.0 | 0.0 | 0.00 | 0.00 | 0.00 | 87 | 1015.4 |
| 20260508213046 | 61 | 184 | 0.0 | 0.0 | 0.00 | 0.00 | 0.00 | 86 | 1015.5 |
| 20260508212547 | 61 | 184 | 0.0 | 0.0 | 0.00 | 0.00 | 0.00 | 86 | 1015.5 |
| 20260508211545 | 61 | 184 | 0.0 | 0.0 | 0.00 | 0.00 | 0.00 | 85 | 1015.5 |
| 20260508211046 | 62 | 184 | 0.0 | 0.0 | 0.00 | 0.00 | 0.00 | 85 | 1015.5 |
| 20260508210047 | 62 | 184 | 0.0 | 0.0 | 0.00 | 0.00 | 0.00 | 84 | 1015.5 |
| 20260508205546 | 62 | 184 | 0.0 | 0.0 | 0.00 | 0.00 | 0.00 | 84 | 1015.5 |
| 20260508205045 | 62 | 184 | 0.0 | 0.0 | 0.00 | 0.00 | 0.00 | 83 | 1015.5 |
| 20260508204546 | 63 | 184 | 0.0 | 0.0 | 0.00 | 0.00 | 0.00 | 83 | 1015.4 |
| 20260508204051 | 63 | 184 | 0.0 | 2.0 | 0.00 | 0.00 | 0.00 | 82 | 1015.4 |
| 20260508203546 | 63 | 181 | 1.0 | 2.0 | 0.00 | 0.00 | 0.00 | 82 | 1015.4 |
| 20260508203046 | 64 | 182 | 1.0 | 2.0 | 0.00 | 0.00 | 0.00 | 81 | 1015.4 |
| 20260508202045 | 65 | 182 | 2.0 | 3.0 | 0.00 | 0.00 | 0.00 | 79 | 1015.3 |
| 20260508201545 | 65 | 180 | 3.0 | 3.0 | 0.00 | 0.00 | 0.00 | 79 | 1015.3 |
| 20260508201048 | 65 | 177 | 2.0 | 3.0 | 0.00 | 0.00 | 0.00 | 79 | 1015.3 |
| 20260508200545 | 64 | 186 | 3.0 | 5.0 | 0.00 | 0.00 | 0.00 | 80 | 1015.3 |
| 20260508195600 | 63 | 173 | 2.0 | 3.0 | 0.00 | 0.00 | 0.00 | 83 | 1015.2 |
| 20260508195045 | 63 | 118 | 1.0 | 2.0 | 0.00 | 0.00 | 0.00 | 82 | 1015.1 |
| 20260508194545 | 63 | 118 | 1.0 | 2.0 | 0.00 | 0.00 | 0.00 | 82 | 1015.1 |
| 20260508194045 | 64 | 118 | 1.0 | 2.0 | 0.00 | 0.00 | 0.00 | 82 | 1015.0 |
| 20260508193545 | 64 | 118 | 1.0 | 2.0 | 0.00 | 0.00 | 0.00 | 81 | 1015.0 |
| 20260508193051 | 64 | 118 | 1.0 | 2.0 | 0.00 | 0.00 | 0.00 | 81 | 1014.9 |
| 20260508192545 | 64 | 118 | 1.0 | 2.0 | 0.00 | 0.00 | 0.00 | 81 | 1014.8 |
| 20260508192045 | 64 | 118 | 2.0 | 3.0 | 0.00 | 0.00 | 0.00 | 80 | 1014.8 |
| 20260508191545 | 65 | 118 | 2.0 | 3.0 | 0.00 | 0.00 | 0.00 | 80 | 1014.7 |
| 20260508191051 | 65 | 121 | 2.0 | 3.0 | 0.00 | 0.00 | 0.00 | 80 | 1014.5 |
| 20260508190546 | 65 | 125 | 2.0 | 3.0 | 0.00 | 0.00 | 0.00 | 80 | 1014.5 |
| 20260508190046 | 65 | 125 | 2.0 | 3.0 | 0.00 | 0.00 | 0.00 | 79 | 1014.4 |
| 20260508185545 | 65 | 120 | 2.0 | 3.0 | 0.00 | 0.00 | 0.00 | 80 | 1014.4 |
| 20260508185053 | 65 | 133 | 1.0 | 2.0 | 0.00 | 0.00 | 0.00 | 79 | 1014.3 |
| 20260508184546 | 65 | 121 | 1.0 | 1.0 | 0.00 | 0.00 | 0.00 | 79 | 1014.3 |
| 20260508184045 | 66 | 121 | 1.0 | 3.0 | 0.00 | 0.00 | 0.00 | 77 | 1014.2 |
| 20260508183545 | 66 | 121 | 3.0 | 5.0 | 0.00 | 0.00 | 0.00 | 76 | 1014.2 |
| 20260508183046 | 67 | 76 | 0.0 | 0.0 | 0.00 | 0.00 | 0.00 | 76 | 1014.1 |
| 20260508182545 | 67 | 78 | 0.0 | 0.0 | 0.00 | 0.00 | 0.00 | 75 | 1014.0 |
| 20260508181545 | 68 | 85 | 0.0 | 0.0 | 0.00 | 0.00 | 0.00 | 75 | 1013.9 |
| 20260508181045 | 68 | 85 | 0.0 | 0.0 | 0.00 | 0.00 | 0.00 | 75 | 1013.9 |
| 20260508180546 | 68 | 85 | 0.0 | 0.0 | 0.00 | 0.00 | 0.00 | 74 | 1013.9 |
| 20260508175546 | 69 | 92 | 0.0 | 0.0 | 0.00 | 0.00 | 0.00 | 72 | 1013.8 |
| 20260508175045 | 69 | 91 | 0.0 | 1.0 | 0.00 | 0.00 | 0.00 | 72 | 1013.8 |
| 20260508174545 | 69 | 74 | 0.0 | 1.0 | 0.00 | 0.00 | 0.00 | 71 | 1013.7 |
| 20260508173545 | 70 | 74 | 0.0 | 1.0 | 0.00 | 0.00 | 0.00 | 70 | 1013.7 |
| 20260508173045 | 70 | 76 | 2.0 | 2.0 | 0.00 | 0.00 | 0.00 | 70 | 1013.6 |
| 20260508172553 | 70 | 100 | 2.0 | 3.0 | 0.00 | 0.00 | 0.00 | 70 | 1013.6 |
| 20260508172045 | 70 | 100 | 2.0 | 3.0 | 0.00 | 0.00 | 0.00 | 70 | 1013.6 |
| 20260508171545 | 70 | 111 | 0.0 | 1.0 | 0.00 | 0.00 | 0.00 | 70 | 1013.6 |
| 20260508170546 | 71 | 111 | 0.0 | 0.0 | 0.00 | 0.00 | 0.00 | 64 | 1013.5 |
| 20260508170045 | 71 | 111 | 0.0 | 0.0 | 0.00 | 0.00 | 0.00 | 66 | 1013.6 |
| 20260508165600 | 71 | 111 | 0.0 | 1.0 | 0.00 | 0.00 | 0.00 | 65 | 1013.6 |
| 20260508165045 | 71 | 111 | 1.0 | 2.0 | 0.00 | 0.00 | 0.00 | 64 | 1013.6 |
| 20260508164045 | 72 | 132 | 1.0 | 2.0 | 0.00 | 0.00 | 0.00 | 64 | 1013.6 |
| 20260508163545 | 72 | 116 | 2.0 | 3.0 | 0.00 | 0.00 | 0.00 | 64 | 1013.6 |
| 20260508163101 | 72 | 87 | 1.0 | 3.0 | 0.00 | 0.00 | 0.00 | 65 | 1013.6 |
| 20260508162545 | 72 | 87 | 1.0 | 3.0 | 0.00 | 0.00 | 0.00 | 65 | 1013.6 |
| 20260508162045 | 71 | 87 | 2.0 | 2.0 | 0.00 | 0.00 | 0.00 | 65 | 1013.6 |
| 20260508161547 | 71 | 92 | 2.0 | 3.0 | 0.00 | 0.00 | 0.00 | 65 | 1013.6 |
| 20260508160045 | 72 | 94 | 2.0 | 3.0 | 0.00 | 0.00 | 0.00 | 65 | 1013.5 |
| 20260508155548 | 72 | 105 | 2.0 | 3.0 | 0.00 | 0.00 | 0.00 | 66 | 1013.5 |
| 20260508155045 | 71 | 114 | 1.0 | 3.0 | 0.00 | 0.00 | 0.00 | 66 | 1013.4 |
| 20260508154548 | 72 | 130 | 2.0 | 3.0 | 0.00 | 0.00 | 0.00 | 66 | 1013.4 |
| 20260508154045 | 71 | 127 | 4.0 | 5.0 | 0.00 | 0.00 | 0.00 | 67 | 1013.4 |
| 20260508153544 | 71 | 119 | 2.0 | 5.0 | 0.00 | 0.00 | 0.00 | 67 | 1013.4 |
| 20260508152549 | 72 | 92 | 2.0 | 3.0 | 0.00 | 0.00 | 0.00 | 65 | 1013.4 |
| 20260508152044 | 72 | 5 | 2.0 | 3.0 | 0.00 | 0.00 | 0.00 | 64 | 1013.4 |
| 20260508151544 | 72 | 75 | 2.0 | 5.0 | 0.00 | 0.00 | 0.00 | 63 | 1013.4 |
| 20260508150545 | 74 | 5 | 2.0 | 3.0 | 0.00 | 0.00 | 0.00 | 63 | 1013.4 |
| 20260508150044 | 73 | 92 | 3.0 | 6.0 | 0.00 | 0.00 | 0.00 | 62 | 1013.5 |
| 20260508145545 | 73 | 43 | 3.0 | 5.0 | 0.00 | 0.00 | 0.00 | 63 | 1013.6 |